Flag for Norway Weather past 2 weeks in Langesund, Norway

Now
58 °F

Cool.


Feels Like: 56 °F
Forecast: 53 / 59 °F
Wind: 9 mph from East

Location: Jomfruland Fyr

Current Time: Aug 30, 2014 at 9:09:31 PM

Latest Report: Aug 30, 2014 at 8:00 PM


Visibility: N/A

Pressure: 29.89 "Hg

Humidity: 91%

Dew point: 55 °F

Location of LangesundLocation

Historic Weather in Langesund — Graph

°F

Langesund temperature yesterday

Maximum temperature yesterday: 63 °F (at 5:00 PM)
Minimum temperature yesterday: 55 °F (at 6:00 AM)
Average temperature yesterday: 60 °F

Past Weeks' High & Low Weather Summary

 TemperatureHumidityPressure
High69 °F (Aug 16, 2:00 PM)92% (Aug 16, 4:00 AM)29.99 "Hg (Aug 16, 4:00 AM)
Low50 °F (Aug 18, 7:00 AM)36% (Aug 21, 4:00 PM)29.18 "Hg (Aug 18, 8:00 AM)
Average59 °F73%29.64 "Hg
* Reported Aug 15 6:00 PM — Aug 30 6:00 PM, Langesund, Weather by CustomWeather, © 2014

Note: Actual official high and low records may vary slightly from our data, if they occured in-between our weather recording intervals... More about our weather records

Advertising

Langesund weather history for previous 24 hours

 ConditionsComfort  
Time TempWeatherWind HumidityBarometerVisibility
6:00 PM
Aug 30
58 °FCool.7 mph89%29.90 "HgN/A
5:00 PM59 °FCool.7 mph86%29.90 "HgN/A
4:00 PM59 °FCool.7 mph87%29.91 "HgN/A
3:00 PM59 °FCool.7 mph89%29.91 "HgN/A
2:00 PM58 °FCool.6 mph91%29.92 "HgN/A
1:00 PM57 °FCool.7 mph92%29.91 "HgN/A
12:00 PM57 °FCool.7 mph92%29.91 "HgN/A
11:00 AM57 °FCool.7 mph91%29.91 "HgN/A
10:00 AM57 °FCool.8 mph89%29.90 "HgN/A
9:00 AM57 °FCool.8 mph88%29.89 "HgN/A
8:00 AM57 °FCool.7 mph90%29.89 "HgN/A
7:00 AM58 °FCool.7 mph85%29.88 "HgN/A
6:00 AM59 °FCool.5 mph85%29.89 "HgN/A
5:00 AM60 °FCool.3 mph83%29.90 "HgN/A
4:00 AM60 °FCool.3 mph85%29.90 "HgN/A
3:00 AM60 °FCool.2 mph82%29.90 "HgN/A
2:00 AM61 °FCool.2 mph83%29.90 "HgN/A
1:00 AM61 °FCool.2 mph81%29.90 "HgN/A
12:00 AM61 °FCool.1 mph78%29.90 "HgN/A
11:00 PM
Aug 29
61 °FCool.2 mph78%29.91 "HgN/A
9:00 PM62 °FCool.2 mph75%29.92 "HgN/A
Weather by CustomWeather, © 2014

See weather overviewHow to use our weather pages